owner,sensor,date,latitude,longitude,relative_humidity,qcFlag 
DISL,ioos:station:DISL:KATA:1,2019-11-01T00:57:00Z,30.2583,-88.2131,69.0,11111222 
DISL,ioos:station:DISL:KATA:1,2019-11-01T01:57:00Z,30.2583,-88.2131,66.57,11111222 
DISL,ioos:station:DISL:KATA:1,2019-11-01T02:57:00Z,30.2583,-88.2131,68.34,11111222 
DISL,ioos:station:DISL:KATA:1,2019-11-01T03:57:00Z,30.2583,-88.2131,74.25,11111222 
DISL,ioos:station:DISL:KATA:1,2019-11-01T04:57:00Z,30.2583,-88.2131,67.05,11111222 
DISL,ioos:station:DISL:KATA:1,2019-11-01T05:57:00Z,30.2583,-88.2131,68.9,11111222 
DISL,ioos:station:DISL:KATA:1,2019-11-01T06:57:00Z,30.2583,-88.2131,67.21,11111222 
DISL,ioos:station:DISL:KATA:1,2019-11-01T07:57:00Z,30.2583,-88.2131,71.63,11111222 
DISL,ioos:station:DISL:KATA:1,2019-11-01T08:57:00Z,30.2583,-88.2131,72.37,11111222 
DISL,ioos:station:DISL:KATA:1,2019-11-01T09:57:00Z,30.2583,-88.2131,75.33,11111222 
DISL,ioos:station:DISL:KATA:1,2019-11-01T10:57:00Z,30.2583,-88.2131,71.9,11111222 
DISL,ioos:station:DISL:KATA:1,2019-11-01T11:57:00Z,30.2583,-88.2131,70.91,11111222 
DISL,ioos:station:DISL:KATA:1,2019-11-01T12:57:00Z,30.2583,-88.2131,69.83,11111222 
DISL,ioos:station:DISL:KATA:1,2019-11-01T13:57:00Z,30.2583,-88.2131,67.3,11111222 
DISL,ioos:station:DISL:KATA:1,2019-11-01T14:57:00Z,30.2583,-88.2131,58.05,11111222 
DISL,ioos:station:DISL:KATA:1,2019-11-01T15:57:00Z,30.2583,-88.2131,49.89,11111222 
DISL,ioos:station:DISL:KATA:1,2019-11-01T16:57:00Z,30.2583,-88.2131,45.53,11111222 
DISL,ioos:station:DISL:KATA:1,2019-11-01T17:57:00Z,30.2583,-88.2131,45.94,11111222 
DISL,ioos:station:DISL:KATA:1,2019-11-01T18:57:00Z,30.2583,-88.2131,35.38,11111222 
DISL,ioos:station:DISL:KATA:1,2019-11-01T19:57:00Z,30.2583,-88.2131,42.06,11111222 
DISL,ioos:station:DISL:KATA:1,2019-11-01T20:57:00Z,30.2583,-88.2131,40.53,11111222 
DISL,ioos:station:DISL:KATA:1,2019-11-01T21:57:00Z,30.2583,-88.2131,34.11,11111222 
DISL,ioos:station:DISL:KATA:1,2019-11-01T22:57:00Z,30.2583,-88.2131,41.11,11111222 
DISL,ioos:station:DISL:KATA:1,2019-11-01T23:57:00Z,30.2583,-88.2131,42.0,11111222 
DISL,ioos:station:DISL:KATA:1,2019-11-02T00:57:00Z,30.2583,-88.2131,44.1,11111222 
DISL,ioos:station:DISL:KATA:1,2019-11-02T01:57:00Z,30.2583,-88.2131,47.22,11111222 
DISL,ioos:station:DISL:KATA:1,2019-11-02T02:57:00Z,30.2583,-88.2131,45.53,11111222 
DISL,ioos:station:DISL:KATA:1,2019-11-02T03:57:00Z,30.2583,-88.2131,53.75,11111222 
DISL,ioos:station:DISL:KATA:1,2019-11-02T04:57:00Z,30.2583,-88.2131,52.56,11111222 
DISL,ioos:station:DISL:KATA:1,2019-11-02T05:57:00Z,30.2583,-88.2131,52.43,11111222 
DISL,ioos:station:DISL:KATA:1,2019-11-02T06:57:00Z,30.2583,-88.2131,56.91,11111222 
DISL,ioos:station:DISL:KATA:1,2019-11-02T07:57:00Z,30.2583,-88.2131,58.78,11111222 
DISL,ioos:station:DISL:KATA:1,2019-11-02T08:57:00Z,30.2583,-88.2131,62.56,11111222 
DISL,ioos:station:DISL:KATA:1,2019-11-02T09:57:00Z,30.2583,-88.2131,62.97,11111222 
DISL,ioos:station:DISL:KATA:1,2019-11-02T10:57:00Z,30.2583,-88.2131,62.16,11111222 
DISL,ioos:station:DISL:KATA:1,2019-11-02T11:57:00Z,30.2583,-88.2131,58.83,11111222 
DISL,ioos:station:DISL:KATA:1,2019-11-02T12:57:00Z,30.2583,-88.2131,61.04,11111222 
DISL,ioos:station:DISL:KATA:1,2019-11-02T13:57:00Z,30.2583,-88.2131,53.75,11111222 
DISL,ioos:station:DISL:KATA:1,2019-11-02T14:57:00Z,30.2583,-88.2131,51.74,11111222 
DISL,ioos:station:DISL:KATA:1,2019-11-02T15:57:00Z,30.2583,-88.2131,37.78,11111222 
DISL,ioos:station:DISL:KATA:1,2019-11-02T16:57:00Z,30.2583,-88.2131,35.44,11111222 
DISL,ioos:station:DISL:KATA:1,2019-11-02T17:57:00Z,30.2583,-88.2131,32.01,11111222 
DISL,ioos:station:DISL:KATA:1,2019-11-02T18:57:00Z,30.2583,-88.2131,35.4,11111222 
DISL,ioos:station:DISL:KATA:1,2019-11-02T19:57:00Z,30.2583,-88.2131,28.72,11111222 
DISL,ioos:station:DISL:KATA:1,2019-11-02T20:57:00Z,30.2583,-88.2131,29.4,11111222 
DISL,ioos:station:DISL:KATA:1,2019-11-02T21:57:00Z,30.2583,-88.2131,32.18,11111222 
DISL,ioos:station:DISL:KATA:1,2019-11-02T22:57:00Z,30.2583,-88.2131,38.22,11111222 
DISL,ioos:station:DISL:KATA:1,2019-11-02T23:57:00Z,30.2583,-88.2131,39.34,11111222 
DISL,ioos:station:DISL:KATA:1,2019-11-03T00:57:00Z,30.2583,-88.2131,40.05,11111222 
DISL,ioos:station:DISL:KATA:1,2019-11-03T01:57:00Z,30.2583,-88.2131,46.47,11111222 
DISL,ioos:station:DISL:KATA:1,2019-11-03T02:57:00Z,30.2583,-88.2131,44.61,11111222 
DISL,ioos:station:DISL:KATA:1,2019-11-03T03:57:00Z,30.2583,-88.2131,48.48,11111222 
DISL,ioos:station:DISL:KATA:1,2019-11-03T04:57:00Z,30.2583,-88.2131,46.31,11111222 
DISL,ioos:station:DISL:KATA:1,2019-11-03T05:57:00Z,30.2583,-88.2131,45.5,11111222 
DISL,ioos:station:DISL:KATA:1,2019-11-03T06:57:00Z,30.2583,-88.2131,50.39,11111222 
DISL,ioos:station:DISL:KATA:1,2019-11-03T08:57:00Z,30.2583,-88.2131,49.51,11111222 
DISL,ioos:station:DISL:KATA:1,2019-11-03T09:57:00Z,30.2583,-88.2131,55.25,11111222 
DISL,ioos:station:DISL:KATA:1,2019-11-03T10:57:00Z,30.2583,-88.2131,57.94,11111222 
DISL,ioos:station:DISL:KATA:1,2019-11-03T11:57:00Z,30.2583,-88.2131,65.93,11111222 
DISL,ioos:station:DISL:KATA:1,2019-11-03T12:57:00Z,30.2583,-88.2131,69.16,11111222 
DISL,ioos:station:DISL:KATA:1,2019-11-03T13:57:00Z,30.2583,-88.2131,64.92,11111222 
DISL,ioos:station:DISL:KATA:1,2019-11-03T14:57:00Z,30.2583,-88.2131,55.44,11111222 
DISL,ioos:station:DISL:KATA:1,2019-11-03T15:57:00Z,30.2583,-88.2131,44.13,11111222 
DISL,ioos:station:DISL:KATA:1,2019-11-03T16:57:00Z,30.2583,-88.2131,43.58,11111222 
DISL,ioos:station:DISL:KATA:1,2019-11-03T17:57:00Z,30.2583,-88.2131,37.27,11111222 
DISL,ioos:station:DISL:KATA:1,2019-11-03T18:57:00Z,30.2583,-88.2131,34.56,11111222 
DISL,ioos:station:DISL:KATA:1,2019-11-03T19:57:00Z,30.2583,-88.2131,34.86,11111222 
DISL,ioos:station:DISL:KATA:1,2019-11-03T20:57:00Z,30.2583,-88.2131,34.83,11111222 
DISL,ioos:station:DISL:KATA:1,2019-11-03T21:57:00Z,30.2583,-88.2131,34.39,11111222 
DISL,ioos:station:DISL:KATA:1,2019-11-03T22:57:00Z,30.2583,-88.2131,43.55,11111222 
DISL,ioos:station:DISL:KATA:1,2019-11-03T23:57:00Z,30.2583,-88.2131,51.12,11111222 
DISL,ioos:station:DISL:KATA:1,2019-11-04T00:57:00Z,30.2583,-88.2131,48.2,11111222 
DISL,ioos:station:DISL:KATA:1,2019-11-04T01:57:00Z,30.2583,-88.2131,45.72,11111222 
DISL,ioos:station:DISL:KATA:1,2019-11-04T02:57:00Z,30.2583,-88.2131,44.98,11111222 
DISL,ioos:station:DISL:KATA:1,2019-11-04T03:57:00Z,30.2583,-88.2131,54.69,11111222 
DISL,ioos:station:DISL:KATA:1,2019-11-04T04:57:00Z,30.2583,-88.2131,62.03,11111222 
DISL,ioos:station:DISL:KATA:1,2019-11-04T05:57:00Z,30.2583,-88.2131,63.83,11111222 
DISL,ioos:station:DISL:KATA:1,2019-11-04T16:27:00Z,30.2583,-88.2131,65.61,11111222 
DISL,ioos:station:DISL:KATA:1,2019-11-04T16:57:00Z,30.2583,-88.2131,65.39,11111222 
DISL,ioos:station:DISL:KATA:1,2019-11-04T17:57:00Z,30.2583,-88.2131,63.39,11111222 
DISL,ioos:station:DISL:KATA:1,2019-11-04T18:57:00Z,30.2583,-88.2131,63.93,11111222 
DISL,ioos:station:DISL:KATA:1,2019-11-04T19:57:00Z,30.2583,-88.2131,64.23,11111222 
DISL,ioos:station:DISL:KATA:1,2019-11-04T20:57:00Z,30.2583,-88.2131,65.9,11111222 
DISL,ioos:station:DISL:KATA:1,2019-11-04T21:57:00Z,30.2583,-88.2131,65.63,11111222 
DISL,ioos:station:DISL:KATA:1,2019-11-04T22:57:00Z,30.2583,-88.2131,66.92,11111222 
DISL,ioos:station:DISL:KATA:1,2019-11-04T23:57:00Z,30.2583,-88.2131,65.88,11111222 
DISL,ioos:station:DISL:KATA:1,2019-11-05T00:57:00Z,30.2583,-88.2131,69.65,11111222 
DISL,ioos:station:DISL:KATA:1,2019-11-05T01:57:00Z,30.2583,-88.2131,71.38,11111222 
DISL,ioos:station:DISL:KATA:1,2019-11-05T02:57:00Z,30.2583,-88.2131,76.0,11111222 
DISL,ioos:station:DISL:KATA:1,2019-11-05T03:57:00Z,30.2583,-88.2131,76.27,11111222 
DISL,ioos:station:DISL:KATA:1,2019-11-05T04:57:00Z,30.2583,-88.2131,74.07,11111222 
DISL,ioos:station:DISL:KATA:1,2019-11-05T05:57:00Z,30.2583,-88.2131,72.64,11111222 
DISL,ioos:station:DISL:KATA:1,2019-11-05T06:57:00Z,30.2583,-88.2131,71.01,11111222 
DISL,ioos:station:DISL:KATA:1,2019-11-05T07:57:00Z,30.2583,-88.2131,71.38,11111222 
DISL,ioos:station:DISL:KATA:1,2019-11-05T08:57:00Z,30.2583,-88.2131,68.74,11111222 
DISL,ioos:station:DISL:KATA:1,2019-11-05T09:57:00Z,30.2583,-88.2131,70.4,11111222 
DISL,ioos:station:DISL:KATA:1,2019-11-05T10:57:00Z,30.2583,-88.2131,68.6,11111222 
DISL,ioos:station:DISL:KATA:1,2019-11-05T11:57:00Z,30.2583,-88.2131,70.4,11111222 
DISL,ioos:station:DISL:KATA:1,2019-11-05T12:57:00Z,30.2583,-88.2131,71.96,11111222 
DISL,ioos:station:DISL:KATA:1,2019-11-05T13:57:00Z,30.2583,-88.2131,71.15,11111222 
DISL,ioos:station:DISL:KATA:1,2019-11-05T14:57:00Z,30.2583,-88.2131,73.92,11111222 
DISL,ioos:station:DISL:KATA:1,2019-11-05T15:57:00Z,30.2583,-88.2131,72.18,11111222 
DISL,ioos:station:DISL:KATA:1,2019-11-05T16:57:00Z,30.2583,-88.2131,71.03,11111222 
DISL,ioos:station:DISL:KATA:1,2019-11-05T17:57:00Z,30.2583,-88.2131,71.58,11111222 
DISL,ioos:station:DISL:KATA:1,2019-11-05T18:57:00Z,30.2583,-88.2131,57.84,11111222 
DISL,ioos:station:DISL:KATA:1,2019-11-05T19:57:00Z,30.2583,-88.2131,49.08,11111222 
DISL,ioos:station:DISL:KATA:1,2019-11-05T20:57:00Z,30.2583,-88.2131,49.22,11111222 
DISL,ioos:station:DISL:KATA:1,2019-11-05T21:57:00Z,30.2583,-88.2131,43.5,11111222 
DISL,ioos:station:DISL:KATA:1,2019-11-05T22:57:00Z,30.2583,-88.2131,49.64,11111222 
DISL,ioos:station:DISL:KATA:1,2019-11-05T23:57:00Z,30.2583,-88.2131,58.26,11111222 
DISL,ioos:station:DISL:KATA:1,2019-11-06T00:57:00Z,30.2583,-88.2131,61.42,11111222 
DISL,ioos:station:DISL:KATA:1,2019-11-06T01:57:00Z,30.2583,-88.2131,60.86,11111222 
DISL,ioos:station:DISL:KATA:1,2019-11-06T02:57:00Z,30.2583,-88.2131,63.99,11111222 
DISL,ioos:station:DISL:KATA:1,2019-11-06T03:57:00Z,30.2583,-88.2131,57.06,11111222 
DISL,ioos:station:DISL:KATA:1,2019-11-06T04:57:00Z,30.2583,-88.2131,58.83,11111222 
DISL,ioos:station:DISL:KATA:1,2019-11-06T05:57:00Z,30.2583,-88.2131,59.61,11111222 
DISL,ioos:station:DISL:KATA:1,2019-11-06T06:57:00Z,30.2583,-88.2131,63.07,11111222 
DISL,ioos:station:DISL:KATA:1,2019-11-06T07:57:00Z,30.2583,-88.2131,64.6,11111222 
DISL,ioos:station:DISL:KATA:1,2019-11-06T08:57:00Z,30.2583,-88.2131,66.36,11111222 
DISL,ioos:station:DISL:KATA:1,2019-11-06T09:57:00Z,30.2583,-88.2131,68.33,11111222 
DISL,ioos:station:DISL:KATA:1,2019-11-06T10:57:00Z,30.2583,-88.2131,71.38,11111222 
DISL,ioos:station:DISL:KATA:1,2019-11-06T11:57:00Z,30.2583,-88.2131,72.74,11111222 
DISL,ioos:station:DISL:KATA:1,2019-11-06T12:57:00Z,30.2583,-88.2131,72.61,11111222 
DISL,ioos:station:DISL:KATA:1,2019-11-06T13:57:00Z,30.2583,-88.2131,70.03,11111222 
DISL,ioos:station:DISL:KATA:1,2019-11-06T14:57:00Z,30.2583,-88.2131,68.14,11111222 
DISL,ioos:station:DISL:KATA:1,2019-11-06T15:57:00Z,30.2583,-88.2131,69.19,11111222 
DISL,ioos:station:DISL:KATA:1,2019-11-06T16:57:00Z,30.2583,-88.2131,70.44,11111222 
DISL,ioos:station:DISL:KATA:1,2019-11-06T17:57:00Z,30.2583,-88.2131,72.3,11111222 
DISL,ioos:station:DISL:KATA:1,2019-11-06T18:57:00Z,30.2583,-88.2131,71.11,11111222 
DISL,ioos:station:DISL:KATA:1,2019-11-06T19:57:00Z,30.2583,-88.2131,70.23,11111222 
DISL,ioos:station:DISL:KATA:1,2019-11-06T20:57:00Z,30.2583,-88.2131,71.42,11111222 
DISL,ioos:station:DISL:KATA:1,2019-11-06T21:57:00Z,30.2583,-88.2131,74.88,11111222 
DISL,ioos:station:DISL:KATA:1,2019-11-06T22:57:00Z,30.2583,-88.2131,76.74,11111222 
DISL,ioos:station:DISL:KATA:1,2019-11-06T23:57:00Z,30.2583,-88.2131,82.6,11111222 
DISL,ioos:station:DISL:KATA:1,2019-11-07T00:57:00Z,30.2583,-88.2131,87.5,11111222 
DISL,ioos:station:DISL:KATA:1,2019-11-07T01:57:00Z,30.2583,-88.2131,83.5,11111222 
DISL,ioos:station:DISL:KATA:1,2019-11-07T02:57:00Z,30.2583,-88.2131,94.3,11111222 
DISL,ioos:station:DISL:KATA:1,2019-11-07T03:57:00Z,30.2583,-88.2131,100.0,11111222 
DISL,ioos:station:DISL:KATA:1,2019-11-07T04:57:00Z,30.2583,-88.2131,100.0,11111222 
DISL,ioos:station:DISL:KATA:1,2019-11-07T05:57:00Z,30.2583,-88.2131,100.0,11111222 
DISL,ioos:station:DISL:KATA:1,2019-11-07T06:57:00Z,30.2583,-88.2131,100.0,11111222 
DISL,ioos:station:DISL:KATA:1,2019-11-07T07:57:00Z,30.2583,-88.2131,100.0,11111222 
DISL,ioos:station:DISL:KATA:1,2019-11-07T08:57:00Z,30.2583,-88.2131,100.0,11111222 
DISL,ioos:station:DISL:KATA:1,2019-11-07T09:57:00Z,30.2583,-88.2131,100.0,11111222 
DISL,ioos:station:DISL:KATA:1,2019-11-07T10:57:00Z,30.2583,-88.2131,100.0,11111222 
DISL,ioos:station:DISL:KATA:1,2019-11-07T11:57:00Z,30.2583,-88.2131,100.0,11111222 
DISL,ioos:station:DISL:KATA:1,2019-11-07T12:57:00Z,30.2583,-88.2131,100.0,11111222 
DISL,ioos:station:DISL:KATA:1,2019-11-07T13:57:00Z,30.2583,-88.2131,100.0,11111222 
DISL,ioos:station:DISL:KATA:1,2019-11-07T14:57:00Z,30.2583,-88.2131,100.0,11111222 
DISL,ioos:station:DISL:KATA:1,2019-11-07T15:57:00Z,30.2583,-88.2131,100.0,11111222 
DISL,ioos:station:DISL:KATA:1,2019-11-07T16:57:00Z,30.2583,-88.2131,100.0,11111222 
DISL,ioos:station:DISL:KATA:1,2019-11-07T17:57:00Z,30.2583,-88.2131,100.0,11111222 
DISL,ioos:station:DISL:KATA:1,2019-11-07T18:57:00Z,30.2583,-88.2131,100.0,11111222 
DISL,ioos:station:DISL:KATA:1,2019-11-07T19:57:00Z,30.2583,-88.2131,100.0,11111222 
DISL,ioos:station:DISL:KATA:1,2019-11-07T20:57:00Z,30.2583,-88.2131,100.0,11111222 
DISL,ioos:station:DISL:KATA:1,2019-11-07T21:57:00Z,30.2583,-88.2131,100.0,11111222 
DISL,ioos:station:DISL:KATA:1,2019-11-07T22:57:00Z,30.2583,-88.2131,100.0,11111222 
DISL,ioos:station:DISL:KATA:1,2019-11-07T23:57:00Z,30.2583,-88.2131,108.1,11144222 
DISL,ioos:station:DISL:KATA:1,2019-11-08T00:57:00Z,30.2583,-88.2131,109.2,11144222 
DISL,ioos:station:DISL:KATA:1,2019-11-08T01:57:00Z,30.2583,-88.2131,108.6,11144222 
DISL,ioos:station:DISL:KATA:1,2019-11-08T02:57:00Z,30.2583,-88.2131,109.0,11144222 
DISL,ioos:station:DISL:KATA:1,2019-11-08T03:57:00Z,30.2583,-88.2131,108.9,11144222 
DISL,ioos:station:DISL:KATA:1,2019-11-08T04:57:00Z,30.2583,-88.2131,108.2,11144222 
DISL,ioos:station:DISL:KATA:1,2019-11-08T05:57:00Z,30.2583,-88.2131,100.0,11111222 
DISL,ioos:station:DISL:KATA:1,2019-11-08T06:57:00Z,30.2583,-88.2131,100.0,11111222 
DISL,ioos:station:DISL:KATA:1,2019-11-08T07:57:00Z,30.2583,-88.2131,92.3,11111222 
DISL,ioos:station:DISL:KATA:1,2019-11-08T08:57:00Z,30.2583,-88.2131,75.53,11111222 
DISL,ioos:station:DISL:KATA:1,2019-11-08T09:57:00Z,30.2583,-88.2131,77.73,11111222 
DISL,ioos:station:DISL:KATA:1,2019-11-08T10:57:00Z,30.2583,-88.2131,76.58,11111222 
DISL,ioos:station:DISL:KATA:1,2019-11-08T11:57:00Z,30.2583,-88.2131,75.9,11111222 
DISL,ioos:station:DISL:KATA:1,2019-11-08T12:57:00Z,30.2583,-88.2131,75.46,11111222 
DISL,ioos:station:DISL:KATA:1,2019-11-08T13:57:00Z,30.2583,-88.2131,84.5,11111222 
DISL,ioos:station:DISL:KATA:1,2019-11-08T14:57:00Z,30.2583,-88.2131,85.5,11111222 
DISL,ioos:station:DISL:KATA:1,2019-11-08T15:57:00Z,30.2583,-88.2131,79.57,11111222 
DISL,ioos:station:DISL:KATA:1,2019-11-08T16:57:00Z,30.2583,-88.2131,78.52,11111222 
DISL,ioos:station:DISL:KATA:1,2019-11-08T17:57:00Z,30.2583,-88.2131,76.14,11111222 
DISL,ioos:station:DISL:KATA:1,2019-11-08T18:57:00Z,30.2583,-88.2131,71.8,11111222 
DISL,ioos:station:DISL:KATA:1,2019-11-08T19:57:00Z,30.2583,-88.2131,72.92,11111222 
DISL,ioos:station:DISL:KATA:1,2019-11-08T20:57:00Z,30.2583,-88.2131,70.89,11111222 
DISL,ioos:station:DISL:KATA:1,2019-11-08T21:57:00Z,30.2583,-88.2131,67.15,11111222 
DISL,ioos:station:DISL:KATA:1,2019-11-08T22:57:00Z,30.2583,-88.2131,65.8,11111222 
DISL,ioos:station:DISL:KATA:1,2019-11-08T23:57:00Z,30.2583,-88.2131,66.25,11111222 
DISL,ioos:station:DISL:KATA:1,2019-11-09T00:57:00Z,30.2583,-88.2131,65.81,11111222 
DISL,ioos:station:DISL:KATA:1,2019-11-09T01:57:00Z,30.2583,-88.2131,68.05,11111222 
DISL,ioos:station:DISL:KATA:1,2019-11-09T02:57:00Z,30.2583,-88.2131,61.9,11111222 
DISL,ioos:station:DISL:KATA:1,2019-11-09T03:57:00Z,30.2583,-88.2131,65.06,11111222 
DISL,ioos:station:DISL:KATA:1,2019-11-09T04:57:00Z,30.2583,-88.2131,68.44,11111222 
DISL,ioos:station:DISL:KATA:1,2019-11-09T05:57:00Z,30.2583,-88.2131,71.67,11111222 
DISL,ioos:station:DISL:KATA:1,2019-11-09T06:57:00Z,30.2583,-88.2131,68.27,11111222 
DISL,ioos:station:DISL:KATA:1,2019-11-09T07:57:00Z,30.2583,-88.2131,70.28,11111222 
DISL,ioos:station:DISL:KATA:1,2019-11-09T08:57:00Z,30.2583,-88.2131,72.15,11111222 
DISL,ioos:station:DISL:KATA:1,2019-11-09T09:57:00Z,30.2583,-88.2131,73.37,11111222 
DISL,ioos:station:DISL:KATA:1,2019-11-09T10:57:00Z,30.2583,-88.2131,73.37,11111222 
DISL,ioos:station:DISL:KATA:1,2019-11-09T11:57:00Z,30.2583,-88.2131,77.65,11111222 
DISL,ioos:station:DISL:KATA:1,2019-11-09T12:57:00Z,30.2583,-88.2131,75.44,11111222 
DISL,ioos:station:DISL:KATA:1,2019-11-09T13:57:00Z,30.2583,-88.2131,74.54,11111222 
DISL,ioos:station:DISL:KATA:1,2019-11-09T14:57:00Z,30.2583,-88.2131,75.78,11111222 
DISL,ioos:station:DISL:KATA:1,2019-11-09T15:57:00Z,30.2583,-88.2131,74.21,11111222 
DISL,ioos:station:DISL:KATA:1,2019-11-09T16:57:00Z,30.2583,-88.2131,72.84,11111222 
DISL,ioos:station:DISL:KATA:1,2019-11-09T17:57:00Z,30.2583,-88.2131,69.31,11111222 
DISL,ioos:station:DISL:KATA:1,2019-11-09T18:57:00Z,30.2583,-88.2131,67.99,11111222 
DISL,ioos:station:DISL:KATA:1,2019-11-09T19:57:00Z,30.2583,-88.2131,67.48,11111222 
DISL,ioos:station:DISL:KATA:1,2019-11-09T20:57:00Z,30.2583,-88.2131,63.48,11111222 
DISL,ioos:station:DISL:KATA:1,2019-11-09T21:57:00Z,30.2583,-88.2131,60.49,11111222 
DISL,ioos:station:DISL:KATA:1,2019-11-09T22:57:00Z,30.2583,-88.2131,63.1,11111222 
DISL,ioos:station:DISL:KATA:1,2019-11-09T23:57:00Z,30.2583,-88.2131,67.48,11111222 
DISL,ioos:station:DISL:KATA:1,2019-11-10T00:57:00Z,30.2583,-88.2131,70.37,11111222 
DISL,ioos:station:DISL:KATA:1,2019-11-10T01:57:00Z,30.2583,-88.2131,63.61,11111222 
DISL,ioos:station:DISL:KATA:1,2019-11-10T02:57:00Z,30.2583,-88.2131,62.05,11111222 
DISL,ioos:station:DISL:KATA:1,2019-11-10T03:57:00Z,30.2583,-88.2131,64.02,11111222 
DISL,ioos:station:DISL:KATA:1,2019-11-10T04:57:00Z,30.2583,-88.2131,69.86,11111222 
DISL,ioos:station:DISL:KATA:1,2019-11-10T05:57:00Z,30.2583,-88.2131,73.06,11111222 
DISL,ioos:station:DISL:KATA:1,2019-11-10T06:57:00Z,30.2583,-88.2131,76.76,11111222 
DISL,ioos:station:DISL:KATA:1,2019-11-10T07:57:00Z,30.2583,-88.2131,77.37,11111222 
DISL,ioos:station:DISL:KATA:1,2019-11-10T08:57:00Z,30.2583,-88.2131,77.18,11111222 
DISL,ioos:station:DISL:KATA:1,2019-11-10T09:57:00Z,30.2583,-88.2131,78.44,11111222 
DISL,ioos:station:DISL:KATA:1,2019-11-10T10:57:00Z,30.2583,-88.2131,78.4,11111222 
DISL,ioos:station:DISL:KATA:1,2019-11-10T11:57:00Z,30.2583,-88.2131,77.45,11111222 
DISL,ioos:station:DISL:KATA:1,2019-11-10T12:57:00Z,30.2583,-88.2131,73.54,11111222 
DISL,ioos:station:DISL:KATA:1,2019-11-10T13:57:00Z,30.2583,-88.2131,73.76,11111222 
DISL,ioos:station:DISL:KATA:1,2019-11-10T14:57:00Z,30.2583,-88.2131,65.75,11111222 
DISL,ioos:station:DISL:KATA:1,2019-11-10T15:57:00Z,30.2583,-88.2131,67.16,11111222 
DISL,ioos:station:DISL:KATA:1,2019-11-10T16:57:00Z,30.2583,-88.2131,62.03,11111222 
DISL,ioos:station:DISL:KATA:1,2019-11-10T17:57:00Z,30.2583,-88.2131,56.97,11111222 
DISL,ioos:station:DISL:KATA:1,2019-11-10T18:57:00Z,30.2583,-88.2131,56.85,11111222 
DISL,ioos:station:DISL:KATA:1,2019-11-10T19:57:00Z,30.2583,-88.2131,59.24,11111222 
DISL,ioos:station:DISL:KATA:1,2019-11-10T20:57:00Z,30.2583,-88.2131,59.11,11111222 
DISL,ioos:station:DISL:KATA:1,2019-11-10T21:57:00Z,30.2583,-88.2131,60.4,11111222 
DISL,ioos:station:DISL:KATA:1,2019-11-10T22:57:00Z,30.2583,-88.2131,64.17,11111222 
DISL,ioos:station:DISL:KATA:1,2019-11-10T23:57:00Z,30.2583,-88.2131,68.77,11111222 
DISL,ioos:station:DISL:KATA:1,2019-11-11T00:57:00Z,30.2583,-88.2131,72.57,11111222 
DISL,ioos:station:DISL:KATA:1,2019-11-11T01:57:00Z,30.2583,-88.2131,61.98,11111222 
DISL,ioos:station:DISL:KATA:1,2019-11-11T02:57:00Z,30.2583,-88.2131,59.61,11111222 
DISL,ioos:station:DISL:KATA:1,2019-11-11T03:57:00Z,30.2583,-88.2131,56.01,11111222 
DISL,ioos:station:DISL:KATA:1,2019-11-11T04:57:00Z,30.2583,-88.2131,59.09,11111222 
DISL,ioos:station:DISL:KATA:1,2019-11-11T05:57:00Z,30.2583,-88.2131,70.81,11111222 
DISL,ioos:station:DISL:KATA:1,2019-11-11T06:57:00Z,30.2583,-88.2131,75.25,11111222 
DISL,ioos:station:DISL:KATA:1,2019-11-11T07:57:00Z,30.2583,-88.2131,76.78,11111222 
DISL,ioos:station:DISL:KATA:1,2019-11-11T08:57:00Z,30.2583,-88.2131,75.02,11111222 
DISL,ioos:station:DISL:KATA:1,2019-11-11T09:57:00Z,30.2583,-88.2131,73.46,11111222 
DISL,ioos:station:DISL:KATA:1,2019-11-11T10:57:00Z,30.2583,-88.2131,75.63,11111222 
DISL,ioos:station:DISL:KATA:1,2019-11-11T11:57:00Z,30.2583,-88.2131,76.14,11111222 
DISL,ioos:station:DISL:KATA:1,2019-11-11T12:57:00Z,30.2583,-88.2131,78.04,11111222 
DISL,ioos:station:DISL:KATA:1,2019-11-11T13:57:00Z,30.2583,-88.2131,78.07,11111222 
DISL,ioos:station:DISL:KATA:1,2019-11-11T14:57:00Z,30.2583,-88.2131,77.66,11111222 
DISL,ioos:station:DISL:KATA:1,2019-11-11T15:57:00Z,30.2583,-88.2131,76.49,11111222 
DISL,ioos:station:DISL:KATA:1,2019-11-11T16:57:00Z,30.2583,-88.2131,75.16,11111222 
DISL,ioos:station:DISL:KATA:1,2019-11-11T17:57:00Z,30.2583,-88.2131,78.52,11111222 
DISL,ioos:station:DISL:KATA:1,2019-11-11T18:57:00Z,30.2583,-88.2131,80.4,11111222 
DISL,ioos:station:DISL:KATA:1,2019-11-11T19:57:00Z,30.2583,-88.2131,84.0,11111222 
DISL,ioos:station:DISL:KATA:1,2019-11-11T20:57:00Z,30.2583,-88.2131,84.8,11111222 
DISL,ioos:station:DISL:KATA:1,2019-11-11T21:57:00Z,30.2583,-88.2131,95.7,11111222 
DISL,ioos:station:DISL:KATA:1,2019-11-11T22:57:00Z,30.2583,-88.2131,97.1,11111222 
DISL,ioos:station:DISL:KATA:1,2019-11-11T23:57:00Z,30.2583,-88.2131,100.0,11111222 
DISL,ioos:station:DISL:KATA:1,2019-11-12T00:57:00Z,30.2583,-88.2131,99.5,11111222 
DISL,ioos:station:DISL:KATA:1,2019-11-12T01:57:00Z,30.2583,-88.2131,100.0,11111222 
DISL,ioos:station:DISL:KATA:1,2019-11-12T02:57:00Z,30.2583,-88.2131,100.0,11111222 
DISL,ioos:station:DISL:KATA:1,2019-11-12T03:57:00Z,30.2583,-88.2131,100.0,11111222 
DISL,ioos:station:DISL:KATA:1,2019-11-12T04:57:00Z,30.2583,-88.2131,100.0,11111222 
DISL,ioos:station:DISL:KATA:1,2019-11-12T05:57:00Z,30.2583,-88.2131,100.0,11111222 
DISL,ioos:station:DISL:KATA:1,2019-11-12T06:57:00Z,30.2583,-88.2131,100.0,11111222 
DISL,ioos:station:DISL:KATA:1,2019-11-12T07:57:00Z,30.2583,-88.2131,100.0,11111222 
DISL,ioos:station:DISL:KATA:1,2019-11-12T08:57:00Z,30.2583,-88.2131,100.0,11111222 
DISL,ioos:station:DISL:KATA:1,2019-11-12T09:57:00Z,30.2583,-88.2131,100.0,11111222 
DISL,ioos:station:DISL:KATA:1,2019-11-12T10:57:00Z,30.2583,-88.2131,91.0,11111222 
DISL,ioos:station:DISL:KATA:1,2019-11-12T11:57:00Z,30.2583,-88.2131,81.0,11111222 
DISL,ioos:station:DISL:KATA:1,2019-11-12T12:57:00Z,30.2583,-88.2131,86.5,11111222 
DISL,ioos:station:DISL:KATA:1,2019-11-12T13:57:00Z,30.2583,-88.2131,79.48,11111222 
DISL,ioos:station:DISL:KATA:1,2019-11-12T14:57:00Z,30.2583,-88.2131,79.55,11111222 
DISL,ioos:station:DISL:KATA:1,2019-11-12T15:57:00Z,30.2583,-88.2131,85.6,11111222 
DISL,ioos:station:DISL:KATA:1,2019-11-12T16:57:00Z,30.2583,-88.2131,79.97,11111222 
DISL,ioos:station:DISL:KATA:1,2019-11-12T17:57:00Z,30.2583,-88.2131,78.28,11111222 
DISL,ioos:station:DISL:KATA:1,2019-11-12T18:57:00Z,30.2583,-88.2131,69.92,11111222 
DISL,ioos:station:DISL:KATA:1,2019-11-12T19:57:00Z,30.2583,-88.2131,58.54,11111222 
DISL,ioos:station:DISL:KATA:1,2019-11-12T20:57:00Z,30.2583,-88.2131,59.75,11111222 
DISL,ioos:station:DISL:KATA:1,2019-11-12T21:57:00Z,30.2583,-88.2131,50.48,11111222 
DISL,ioos:station:DISL:KATA:1,2019-11-12T22:57:00Z,30.2583,-88.2131,56.53,11111222 
DISL,ioos:station:DISL:KATA:1,2019-11-12T23:57:00Z,30.2583,-88.2131,55.52,11111222 
DISL,ioos:station:DISL:KATA:1,2019-11-13T00:57:00Z,30.2583,-88.2131,58.21,11111222 
DISL,ioos:station:DISL:KATA:1,2019-11-13T01:57:00Z,30.2583,-88.2131,57.49,11111222 
DISL,ioos:station:DISL:KATA:1,2019-11-13T02:57:00Z,30.2583,-88.2131,54.18,11111222 
DISL,ioos:station:DISL:KATA:1,2019-11-13T03:57:00Z,30.2583,-88.2131,54.89,11111222 
DISL,ioos:station:DISL:KATA:1,2019-11-13T04:57:00Z,30.2583,-88.2131,60.33,11111222 
DISL,ioos:station:DISL:KATA:1,2019-11-13T05:57:00Z,30.2583,-88.2131,60.2,11111222 
DISL,ioos:station:DISL:KATA:1,2019-11-13T06:57:00Z,30.2583,-88.2131,59.35,11111222 